Regional Weather Roundup
Issued by NWS

Home | Current Version | Previous Version | Graphics & Text | Print | Product List | Glossary On
Versions: 1 2 3 4 5 6 7 8 9 10 11 12 13 14 15 16 17 18 19 20 21 22 23 24 25 26 27 28 29 30 31 32 33 34 35 36 37 38 39 40 41 42 43 44 45 46 47 48 49 50
000
ASUS43 KLOT 221809
RWRIL

ILLINOIS REGIONAL WEATHER ROUNDUP
NATIONAL WEATHER SERVICE CHICAGO/ROMEOVILLE IL
100 PM CDT FRI SEP 22 2017

NOTE: "FAIR" INDICATES FEW OR NO CLOUDS BELOW 12,000 FEET WITH NO
SIGNIFICANT WEATHER AND/OR OBSTRUCTIONS TO VISIBILITY.

* THESE STATIONS ARE NOT UNDER NWS QUALITY CONTROL. THEY ALSO MAY NOT
  REPORT WEATHER SUCH AS PRECIPITATION OR FOG.

ILZ001-002-007-009-015-016-024-221900-
NORTHWEST ILLINOIS

CITY           SKY/WX    TMP DP  RH WIND       PRES   REMARKS
MOLINE         SUNNY     91  68  46 S12       30.02S HX  95
6HR MIN TEMP:  72; 6HR MAX TEMP:  91;

STERLING*      SUNNY     91  69  48 SW8       30.04F HX  96
SAVANNA*       SUNNY     90  70  51 S9G20     30.03S HX  95
$$

ILZ003-004-008-010-011-017-018-221900-
NORTH CENTRAL ILLINOIS

CITY           SKY/WX    TMP DP  RH WIND       PRES   REMARKS
ROCKFORD       MOSUNNY   90  67  46 S10G16    30.05F HX  93
6HR MIN TEMP:  68; 6HR MAX TEMP:  90;

FREEPORT*      SUNNY     89  68  49 SW14G20   30.06F HX  92
ROCHELLE*      SUNNY     91  67  46 SW10G17   30.06S HX  94
DE KALB*       SUNNY     91  68  47 SW13      30.07S HX  94
PERU*          SUNNY     90  66  44 SW13      30.05F HX  92
$$

ILZ005-006-012>014-019>023-221900-
NORTHEAST ILLINOIS

CITY           SKY/WX    TMP DP  RH WIND       PRES   REMARKS
CHICAGO-OHARE  MOSUNNY   93  63  36 SW13G18   30.05F HX  94
6HR MIN TEMP:  73; 6HR MAX TEMP:  93;

CHICAGO-MIDWAY MOSUNNY   93  65  39 SW13      30.05F HX  95
6HR MIN TEMP:  76; 6HR MAX TEMP:  93;

AURORA         SUNNY     90  67  46 S14       30.06F HX  93
6HR MIN TEMP:  66; 6HR MAX TEMP:  90;

LANSING*       SUNNY     90  70  50 SW7       30.07F HX  95
JOLIET*        SUNNY     92  70  48 S13       30.06F HX  97
WAUKEGAN       SUNNY     92  66  42 S14       30.04F HX  94
6HR MIN TEMP:  70; 6HR MAX TEMP:  92;

DUPAGE AIRPORT SUNNY     91  66  43 SW12G21   30.05F HX  93
6HR MIN TEMP:  67; 6HR MAX TEMP:  91;

KANKAKEE*      SUNNY     90  69  49 SW7       30.08F HX  94
WHEELING       SUNNY     93  65  39 S13G20    30.06F HX  95
6HR MIN TEMP:  69; 6HR MAX TEMP:  94;

MORRIS*        SUNNY     92  65  41 S12       30.04F HX  94
ROMEOVILLE*    SUNNY     91  65  42 S7G17     30.06F HX  93
NORTHERLY ISL    N/A     86  68  54 E6          N/A  HX  89
$$

LMZ740>746-221900-
SOUTHERN LAKE MICHIGAN

STATION/POSITION SKY/WX   TEMP    WIND        PRES    VSBY  WAVE
                          AIR SEA DIR/SP/G                  HT/PER
                          (F)     (DEG/KT/KT) (MB)    (MI)  (FT/S)
SOUTHERN BUOY              72 70  160/  8/  8 1018.4          1
WILMETTE HARBOR            75 73  130/  8/ 10   N/A           1/ 2
HARRISON CRIB              84     140/ 15/ 16   N/A
BURNHAM HARBOR             83                   N/A
CALUMET HARBOR             89     180/  7/ 11 1017.2F
BURNS HARBOR               83     350/  3/  4 1018.6F
MICHIGAN CITY              83      30/  4/  6   N/A
MICHIGAN CITY 6N           81 74   50/  2/  4   N/A           0
ST. JOSEPH                 79 72  190/  2/  2 1018.4          0
$$

ILZ025>027-034>036-040-047-049-050-058-095>099-221900-
WEST-CENTRAL ILLINOIS

CITY           SKY/WX    TMP DP  RH WIND       PRES   REMARKS
QUINCY         MOSUNNY   90  68  48 S10G20    30.03F HX  94
GALESBURG*     SUNNY     89  68  50 S12       30.04F HX  93
MACOMB*        SUNNY     91  66  43 S10       30.05F HX  93
JACKSONVILLE*  SUNNY     91  65  41 S8        30.04F HX  93
PITTSFIELD*    SUNNY     91  69  48 S6        30.05F HX  96
$$

ILZ028>032-037-038-041>044-048-051>054-059>061-221900-
CENTRAL ILLINOIS

CITY           SKY/WX    TMP DP  RH WIND       PRES   REMARKS
PONTIAC        SUNNY     92  66  41 S6        30.06F HX  95
BLOOMINGTON    MOSUNNY   90  69  50 S9        30.08F HX  94
DECATUR        SUNNY     91  64  40 S10       30.06F HX  92
PEORIA         SUNNY     92  68  45 S13       30.04F HX  96
6HR MIN TEMP:  70; 6HR MAX TEMP:  92;

LACON*         SUNNY     91  66  43 SW9G17    30.04F HX  93
LINCOLN*       SUNNY     92  69  45 SW6       30.05S HX  97
SPRINGFIELD    SUNNY     94  65  38 S9        30.04F HX  96
6HR MIN TEMP:  72; 6HR MAX TEMP:  95;

TAYLORVILLE    SUNNY     92  63  38 SW9       30.05F HX  93
6HR MIN TEMP:  66; 6HR MAX TEMP:  92;

$$

ILZ033-039-045-046-055>057-062-063-221900-
EAST-CENTRAL ILLINOIS

CITY           SKY/WX    TMP DP  RH WIND       PRES   REMARKS
CHAMPAIGN      MOSUNNY   94  63  35 SE6       30.07F HX  95
RANTOUL*       MOSUNNY   92  69  47 S5        30.07F HX  97
MATTOON        MOSUNNY   92  67  43 SE8       30.06F HX  95
PARIS*         PTSUNNY   90  67  47 SE5       30.08S HX  93
$$

ILZ079-100>102-221900-
SOUTHWEST ILLINOIS

CITY           SKY/WX    TMP DP  RH WIND       PRES   REMARKS
ALTON          MOSUNNY   90  70  51 SW6       30.05F HX  95
BELLEVILLE     MOSUNNY   93  66  40 S8        30.03F HX  96
CAHOKIA*       MOSUNNY   93  65  39 CALM      30.04F HX  95
SPARTA*        MOSUNNY   89  67  47 S5        30.06F HX  92
$$

ILZ064>066-069>071-074>076-080>082-084>086-088>090-092>094-221900-
SOUTH-CENTRAL ILLINOIS

CITY           SKY/WX    TMP DP  RH WIND       PRES   REMARKS
CARBONDALE     MOSUNNY   88  70  55 SE6       30.05F HX  93
6HR MIN TEMP:  67; 6HR MAX TEMP:  89;

CAIRO*         SUNNY     87  72  61 SW5       30.05F HX  93
EFFINGHAM*     MOSUNNY   92  65  40 E5        30.07F HX  94
MARION         MOSUNNY   93  64  38 E6        30.06F HX  95
MT. VERNON       N/A     89  69  51 E3        30.06F HX  93
CENTRALIA*     MOSUNNY   91  67  46 SE10      30.05F HX  94
SALEM*         MOSUNNY   91  64  40 CALM      30.06F HX  92
METROPOLIS*    SUNNY     90  67  46 S5        30.05F HX  93
$$

ILZ067-068-072-073-078-083-087-091-221900-
SOUTHEAST ILLINOIS

CITY           SKY/WX    TMP DP  RH WIND       PRES   REMARKS
LAWRENCEVILLE  MOSUNNY   89  68  49 CALM      30.06F HX  93
FLORA*         MOSUNNY   92  67  43 CALM      30.06F HX  96
FAIRFIELD*     PTSUNNY   91  66  43 CALM      30.04F HX  93
HARRISBURG*    MOSUNNY   92  66  42 E9        30.05F HX  95
ROBINSON*      MOSUNNY   90  68  48 CALM      30.08F HX  94
CARMI*         PTSUNNY   93  68  44 E8        30.05F HX  97
$$

ABBREVIATIONS USED IN REMARKS
   TC - TEMPERATURE IN CELSIUS
  WCI - WIND CHILL INDEX
   HX - HEAT INDEX
  VSB - VISIBILITY
$$




USA.gov is the U.S. government's official web portal to all federal, state and local government web resources and services.